Weather in Bryansky

Russia / Lipetsk Oblast     52°09′30″N   40°32′02″E
temp.,
°C
wind,
m/s
gust,
m/s
humid.,
%
clouds,
%
prec.,
mm/h
press.,
hPa
HPBL,
m
25 january, tue
tue2500:00−17e249877 0.0 103052
03:00−19ene2210079 0.0 102910
06:00−16e2298100 0.0 102718
09:00−13ese2297100 0.1 102665
12:00−9se119299 0.1 1024202
15:00−8ssw129396 0.2 1023229
18:00−11ssw229877 0.1 102211
21:00−11sw229781 0.3 102142
26 january, wed
wed2600:00−11sw249794 0.2 102079
03:00−10sw3696100 0.6 1019263
06:00−9wsw3695100 0.6 1018294
09:00−10sw2596100 0.6 1018200
12:00−9sw3592100 0.1 1018286
15:00−8sw3693100 0.1 1018361
18:00−12ssw2299100 0.0 101833
21:00−11sw2597100 0.1 1019106
27 january, thu
thu2700:00−11ssw349775 0.1 101878
03:00−14ssw349885 0.2 101853
06:00−14sw249886 0.1 101858
09:00−12ssw249768 0.2 101992
12:00−10sw3594100 0.0 1018209
15:00−8ssw359493 0.1 1017323
18:00−15s2210092 0.0 101725
21:00−15s35100100 0.1 101660
28 january, fri
fri2800:00−13s389899 0.0 1015146
03:00−15s499778 0.0 1014114
06:00−14sse4109770 0.0 1013158
09:00−11sse5129582 0.1 1012280
12:00−7sse61294100 0.1 1010373
15:00−6sse61395100 0.3 1008443
18:00−5sse61495100 0.6 1006474
21:00−3s61397100 1.3 1005480
29 january, sat
sat2900:00−2ssw61297100 0.6 1004465
03:00−1sw51194100 0.9 1005461
06:00−1ssw51196100 0.4 1005497
09:00−1ssw5109698 0.7 1006397
12:00−1ssw599589 0.0 1006442
15:000sw5792100 0.1 1006564
18:00−2sw379886 0.3 1007219
21:00−4wsw369891 0.6 1007107